Weather History for George, South Africa

Change the Weather History Date:

Monday, May 7, 2012

  Actual Average Record
Temperature  
Mean Temperature 58 °F -  
Max Temperature 70 °F 67 °F 89 °F (2007)
Min Temperature 45 °F 48 °F 42 °F (2000)
Degree Days  
Heating Degree Days 8    
Growing Degree Days 8 (Base 50)    
Moisture  
Dew Point 55 °F    
Average Humidity 90    
Maximum Humidity 100    
Minimum Humidity 67    
Precipitation  
Precipitation 0.00 in - - ()
Sea Level Pressure  
Sea Level Pressure 30.25 in    
Wind  
Wind Speed 5 mph ()    
Max Wind Speed 15 mph    
Max Gust Speed -    
Visibility 6.6 miles    
Events Fog    
Averages and records for this station are not official NWS values.
T = Trace of Precipitation, MM = Missing Value Source: Averaged Metar Reports

Daily Weather History Graph

Daily Weather History Graph

Search for Another Location

Airport:

Trip Planner

Search our weather history database for the weather conditions in past years. The results will help you decide how hot, cold, wet, or windy it might be!

Date:

Astronomy

May. 07, 2012 Rise Set
Actual Time 7:10 AM SAST 5:43 PM SAST
Civil Twilight 6:43 AM SAST 6:09 PM SAST
Nautical Twilight 6:13 AM SAST 6:39 PM SAST
Astronomical Twilight 5:44 AM SAST 7:09 PM SAST
Moon 6:57 PM SAST (5/7) 8:31 AM SAST (5/7)
Length of Visible Light 11h 25m
Length of Day
10h 33m
Full, 98% of the Moon is Illuminated
May 7
Full
May 12
Last Quarter
May 21
New
May 28
First Quarter
Jun 4
Full

Hourly Weather History & Observations

Time (SAST) Temp. Windchill Dew Point Humidity Pressure Visibility Wind Dir Wind Speed Gust Speed Precip Events Conditions
12:00 AM 50.0 °F - 50.0 °F 100% 30.30 in - NW 3.5 mph - N/A   Clear
1:00 AM 48.2 °F - 48.2 °F 100% 30.30 in - North 2.3 mph - N/A   Clear
2:00 AM 50 °F - 50 °F 98% 30.32 in 6 mi North 2.3 mph - -  
2:00 AM 50.0 °F - 50.0 °F 100% 30.30 in - North 2.3 mph - N/A   Clear
3:00 AM 48.2 °F - 48.2 °F 100% 30.30 in - Variable 2.3 mph - N/A   Clear
4:00 AM 48.2 °F - 48.2 °F 100% 30.27 in 6.2 mi NNE 4.6 mph - N/A   Mist
5:00 AM 47 °F - 46 °F 95% 30.28 in 12 mi 2.3 mph - -  
5:00 AM 48.2 °F - 46.4 °F 93% 30.27 in - Variable 2.3 mph - N/A   Clear
6:00 AM 46.4 °F 45.2 °F 46.4 °F 100% 30.27 in 6.2 mi North 3.5 mph - N/A   Scattered Clouds
7:00 AM 48.2 °F - 46.4 °F 93% 30.30 in 6.2 mi Variable 2.3 mph - N/A   Mostly Cloudy
8:00 AM 49 °F - 47 °F 91% 30.30 in 12 mi 3.5 mph - -   Scattered Clouds
8:00 AM 48.2 °F - 46.4 °F 93% 30.30 in 6.2 mi NW 3.5 mph - N/A   Partly Cloudy
9:00 AM 57.2 °F - 55.4 °F 94% 30.30 in 6.2 mi Variable 2.3 mph - N/A   Partly Cloudy
10:00 AM 64.4 °F - 59.0 °F 83% 30.30 in 6.2 mi East 11.5 mph - N/A   Partly Cloudy
11:00 AM 67 °F - 58 °F 67% 30.30 in 12 mi East 15.0 mph - -   Scattered Clouds
11:00 AM 66.2 °F - 59.0 °F 78% 30.27 in 6.2 mi ESE 15.0 mph - N/A   Partly Cloudy
12:00 PM 68.0 °F - 59.0 °F 73% 30.27 in 6.2 mi East 13.8 mph - N/A   Partly Cloudy
1:00 PM 69.8 °F - 59.0 °F 68% 30.24 in - ESE 12.7 mph - N/A   Clear
2:00 PM 69 °F - 61 °F 70% 30.21 in 12 mi ESE 10.4 mph - -   Scattered Clouds
2:00 PM 69.8 °F - 60.8 °F 73% 30.21 in 6.2 mi ESE 10.4 mph - N/A   Partly Cloudy
3:00 PM 66.2 °F - 60.8 °F 83% 30.18 in 6.2 mi SE 11.5 mph - N/A   Scattered Clouds
4:00 PM 66.2 °F - 60.8 °F 83% 30.18 in 6.2 mi SE 9.2 mph - N/A   Partly Cloudy
5:00 PM 63 °F - 61 °F 91% 30.18 in 6 mi ESE 9.2 mph - -   Mostly Cloudy
5:00 PM 62.6 °F - 60.8 °F 94% 30.18 in 6.2 mi ESE 8.1 mph - N/A   Mostly Cloudy
6:00 PM 60.8 °F - 60.8 °F 100% 30.18 in 5.6 mi East 5.8 mph - N/A   Overcast
7:00 PM 60.8 °F - 60.8 °F 100% 30.15 in 5.0 mi ENE 6.9 mph - N/A   Overcast
8:00 PM 60 °F - 59 °F 97% 30.16 in 3 mi ENE 3.5 mph - -   Mist
8:00 PM 59.0 °F - 59.0 °F 100% 30.15 in 3.1 mi ENE 3.5 mph - N/A   Overcast
9:00 PM 59.0 °F - 59.0 °F 100% 30.15 in 0.7 mi North 1.2 mph - N/A Fog Fog